Wind_Speed
102 103 103 103 103 103 104 104 103 103 103 102 102 102 102 101 101 102 102 102 102 102 103 103 104 104 105 106 106 107 107 108 108 108 108 109 109 109 109 109 109 108 108 108 108 107 107 107 106 106 105 104 104 102 101 100 98 96 94 92 90 89 87 86 85 84 84 84 83 83 82 80 78 77 75 75 74 73 71 69 68 67 66 65 64 63
102 102 102 102 102 102 102 102 101 101 100 100 100 100 100 100 101 101 102 102 102 103 104 104 105 106 107 107 108 109 109 110 110 111 111 111 112 112 112 112 111 111 111 111 111 110 110 109 109 108 108 107 106 105 104 103 101 99 98 96 94 92 91 89 88 87 86 85 84 84 83 82 81 79 77 76 75 75 73 72 70 69 67 66 66 65
102 102 102 101 101 100 100 100 100 99 99 99 99 99 99 100 101 101 102 103 104 104 105 106 107 107 108 109 110 110 111 112 112 113 113 114 114 114 114 114 114 114 114 114 113 113 113 112 112 111 110 110 109 108 107 105 104 103 101 99 98 96 95 93 91 90 88 87 86 86 85 84 83 82 80 78 77 76 76 75 73 71 70 68 67 67
100 100 100 100 99 99 99 98 98 98 98 98 99 99 100 100 101 102 103 104 105 106 106 107 108 109 109 110 111 112 112 113 114 114 115 115 115 116 116 116 116 116 116 116 116 116 115 115 114 114 113 112 111 110 109 108 107 106 104 103 101 100 98 96 95 93 92 90 89 88 87 85 85 84 83 81 79 78 77 77 76 74 73 71 70 69
98 98 98 98 98 98 98 98 97 98 98 98 99 100 100 101 102 103 104 105 106 107 108 109 109 110 111 112 112 113 114 114 115 115 116 116 116 117 117 117 117 117 117 117 117 117 117 117 116 116 115 115 114 113 111 110 109 108 107 106 104 103 101 100 98 97 95 93 92 90 89 87 86 86 85 84 82 80 79 79 78 77 76 74 72 71
97 96 96 96 96 96 97 97 97 98 99 99 100 101 102 103 104 104 105 106 107 108 109 110 111 112 113 113 114 115 115 116 116 117 117 118 118 118 118 118 118 118 118 118 118 118 118 117 117 117 117 116 116 115 114 113 112 111 110 109 107 106 105 103 102 100 98 97 95 93 91 89 88 87 87 86 85 83 81 80 80 79 78 77 75 74
95 95 95 95 96 96 97 97 98 99 99 100 101 102 103 104 105 106 107 108 109 110 112 112 113 114 115 115 116 117 117 118 119 119 119 120 120 120 119 119 119 119 119 119 119 119 118 118 118 118 117 117 117 116 115 115 114 113 112 111 110 109 107 106 105 104 102 100 98 96 94 92 91 90 89 88 87 86 84 83 82 81 81 80 78 77
94 95 95 95 96 96 97 98 99 100 101 102 103 104 105 106 107 108 110 111 112 113 114 115 115 116 117 118 119 119 120 121 121 121 121 121 121 121 121 121 121 120 120 120 119 119 119 119 118 118 118 117 117 116 116 116 115 115 114 113 112 111 110 109 108 107 105 103 101 98 96 95 94 93 92 90 89 88 87 85 84 83 82 82 81 79
94 94 95 95 96 97 98 99 100 101 102 103 105 106 107 108 110 111 112 113 114 115 116 117 118 119 119 120 121 122 122 123 123 123 123 123 123 123 122 122 122 121 121 120 120 119 119 119 119 118 118 117 117 116 116 116 115 115 115 114 114 113 112 111 110 109 108 106 104 102 99 97 96 95 94 93 91 90 89 88 86 85 84 84 83 82
94 94 95 96 97 98 99 100 102 103 104 106 107 108 109 110 112 113 114 115 116 117 118 119 120 121 122 122 123 123 124 124 124 124 124 124 123 123 122 122 122 121 121 120 119 118 118 118 118 117 117 117 116 116 115 115 115 115 115 115 114 114 114 113 112 112 111 109 107 105 102 100 99 98 97 95 93 92 91 90 89 88 87 86 85 84
94 95 96 97 98 99 100 102 104 105 106 108 109 110 111 112 113 115 116 117 118 118 119 120 121 122 123 124 124 124 124 125 124 124 123 122 122 122 121 120 120 119 119 118 117 117 116 116 116 115 115 115 115 114 114 113 113 113 113 113 114 114 114 114 114 113 113 111 110 107 105 103 102 101 99 98 96 94 93 92 91 90 89 88 87 86
95 96 97 98 99 101 102 104 105 107 108 110 111 112 113 114 115 116 117 118 119 120 120 121 122 122 123 124 124 124 124 123 123 122 121 120 120 119 118 118 117 116 115 114 114 114 113 113 113 113 112 112 112 112 111 111 111 110 111 111 112 112 113 113 114 114 114 113 112 110 108 106 104 103 102 100 99 97 95 94 93 92 91 90 89 88
96 97 98 100 101 103 104 106 107 109 110 111 112 114 115 116 117 118 119 119 120 120 121 121 122 122 122 123 123 123 122 121 120 119 118 117 116 116 115 114 113 112 111 110 110 110 110 110 109 109 109 109 109 109 108 108 108 108 108 108 109 110 110 111 112 113 113 113 113 112 110 109 107 106 104 103 102 100 98 97 95 94 93 92 91 90
97 98 100 101 103 104 106 107 109 110 112 113 114 115 116 117 118 119 120 120 120 120 120 121 121 121 121 121 121 120 120 119 117 116 115 114 113 112 112 111 110 108 107 107 106 106 106 106 106 106 106 106 106 105 105 105 105 105 105 105 105 106 107 108 110 111 112 112 113 113 112 111 109 108 107 105 104 103 101 99 98 96 95 94 93 92
98 100 102 103 105 106 108 109 111 112 113 114 115 116 117 118 118 119 120 120 120 119 119 119 118 118 118 118 118 118 117 117 115 113 112 111 110 109 109 108 107 105 104 103 102 102 102 102 102 102 102 102 102 102 102 102 102 102 102 102 102 103 104 105 106 108 109 110 111 112 112 112 111 110 109 108 107 105 104 102 100 99 97 96 95 94
100 102 103 105 107 108 109 110 112 113 114 114 115 116 117 118 118 118 118 118 118 117 117 116 116 115 115 115 115 115 115 114 113 111 109 108 108 107 106 105 104 102 100 99 99 99 99 99 99 99 99 99 99 99 99 99 99 99 99 99 100 100 101 101 103 104 106 107 109 110 111 112 112 112 111 110 109 108 106 105 103 101 100 98 97 96
102 103 105 106 108 109 110 111 112 113 114 115 115 116 116 117 117 117 117 116 116 115 114 113 113 112 112 112 112 112 112 112 111 109 107 106 105 104 103 102 101 99 97 96 95 95 95 95 95 96 96 96 96 96 96 97 97 97 97 97 97 97 98 98 99 101 102 104 106 108 109 111 111 112 112 112 111 110 108 107 106 104 102 101 99 98
103 105 106 107 109 110 111 112 113 113 114 114 115 115 115 115 115 114 114 113 113 112 111 111 110 110 109 110 110 109 109 108 107 106 104 103 101 100 99 98 97 95 93 92 92 92 92 92 92 92 92 93 93 93 94 94 94 94 94 94 95 95 95 96 97 98 99 101 103 104 106 108 110 111 112 112 112 111 110 109 108 107 105 103 102 100
104 106 107 108 109 110 111 112 112 113 113 113 113 113 113 112 112 111 111 110 110 109 109 108 108 107 107 107 107 107 106 105 104 102 100 99 97 96 95 94 93 91 90 89 88 88 88 88 88 89 89 90 90 90 91 91 91 92 92 92 92 92 93 94 94 95 97 98 99 101 103 105 107 109 111 112 112 112 112 111 110 109 108 106 104 102
105 106 107 108 109 110 111 111 112 112 112 112 111 111 110 109 109 108 108 108 107 107 106 106 105 105 105 105 104 104 103 102 101 99 97 95 93 92 91 90 89 87 86 85 85 85 85 85 85 85 86 86 87 87 88 88 89 89 89 89 90 90 91 91 92 93 94 95 97 98 100 102 104 106 109 110 112 113 113 113 112 111 110 108 107 105
106 107 107 108 109 110 110 111 111 111 110 110 109 108 107 107 106 106 105 105 105 105 104 103 103 102 102 102 102 101 100 99 97 95 92 90 89 88 87 86 85 83 82 81 81 81 81 81 81 81 82 82 83 84 84 85 86 86 87 87 87 88 89 89 90 91 92 93 94 96 97 99 101 103 106 108 110 112 113 114 114 113 112 111 109 107
106 107 107 108 109 109 109 110 109 109 108 107 107 106 105 104 104 103 103 103 103 102 101 101 100 100 99 99 99 98 97 96 94 92 89 87 85 84 83 82 81 80 79 78 77 77 77 77 78 78 78 79 79 80 81 81 82 83 84 84 85 86 86 87 88 89 90 91 92 93 95 96 98 100 103 105 108 111 113 114 114 114 113 112 111 109
106 107 107 108 108 108 108 108 108 107 106 105 104 103 102 102 101 101 101 101 100 100 99 98 97 97 96 96 96 95 94 93 91 89 86 84 82 80 80 79 78 77 75 74 74 74 73 74 74 74 75 75 76 76 77 78 79 80 81 82 83 83 84 85 86 87 88 89 90 91 93 94 96 98 100 103 106 109 112 113 114 114 114 113 112 111
106 107 107 108 108 108 107 107 106 105 104 102 102 101 100 100 99 99 99 98 98 97 96 95 95 94 94 93 93 92 91 90 88 85 83 80 78 77 77 76 75 73 72 71 71 70 70 70 70 71 71 71 72 73 73 75 76 77 78 79 80 81 82 82 83 84 85 87 88 89 91 92 94 95 97 100 103 106 110 112 114 114 114 114 114 112
106 107 107 107 107 107 106 105 104 103 102 100 100 99 98 98 97 97 96 96 95 95 94 93 92 91 91 90 90 89 88 86 85 82 79 76 74 74 73 73 72 70 69 68 68 67 67 67 67 67 68 68 69 69 70 71 73 74 75 77 78 78 79 80 80 81 83 84 86 87 89 90 92 93 95 98 101 104 107 110 112 113 114 114 114 114
106 107 107 107 106 106 105 103 102 101 100 99 98 98 97 97 96 96 95 94 93 93 92 91 90 89 88 87 87 86 85 83 81 79 76 73 71 70 70 70 68 67 66 65 65 65 64 64 64 64 65 65 66 66 67 68 70 71 72 74 75 76 77 77 78 79 80 82 83 85 87 89 90 92 93 96 98 101 105 108 110 112 113 114 114 114
106 107 107 106 106 105 103 102 101 100 99 98 98 97 96 96 95 95 94 93 92 91 89 88 87 86 85 84 84 83 82 80 78 75 72 70 69 68 67 66 65 64 63 62 62 62 62 62 62 62 62 62 63 63 64 65 67 68 69 71 72 73 74 74 75 76 78 79 81 83 85 87 89 90 92 94 96 99 102 105 107 110 111 113 114 114
107 107 106 106 105 104 102 101 100 99 98 98 97 96 96 95 94 94 93 91 90 89 88 86 85 84 83 82 81 80 79 77 75 72 70 68 67 66 65 64 62 61 60 60 60 60 61 60 60 59 59 60 60 61 62 63 64 65 66 68 69 70 71 72 73 74 75 77 79 81 83 85 87 88 90 92 94 97 99 102 105 107 109 111 113 114
106 106 106 105 104 102 101 100 99 98 97 97 96 96 95 94 93 93 91 90 89 87 86 84 83 82 80 79 78 77 76 74 72 70 67 66 65 64 63 62 60 59 58 58 58 59 59 59 58 57 57 57 58 59 59 60 61 62 63 65 66 67 68 69 70 71 73 75 77 79 81 83 84 86 88 90 92 95 97 100 102 105 107 109 111 113
106 106 105 104 103 101 100 98 98 97 96 96 95 95 94 93 92 91 90 89 87 86 84 83 81 80 78 76 75 74 73 72 70 68 66 64 63 62 61 60 58 57 56 55 56 57 57 57 56 55 55 55 56 56 57 58 58 59 60 62 63 64 66 67 68 69 70 72 74 76 78 80 82 84 86 88 90 93 95 98 100 102 104 107 109 111
106 105 104 103 101 100 98 97 96 96 95 94 94 93 93 92 91 90 88 87 85 84 82 81 79 77 76 74 73 71 70 69 68 66 64 63 61 60 59 58 57 55 54 54 54 55 56 56 55 54 53 53 53 54 55 55 56 57 58 59 61 62 63 64 65 67 68 69 71 73 75 78 80 82 84 86 88 91 93 96 98 100 102 104 107 110
105 105 103 102 100 98 97 96 95 94 94 93 92 92 91 90 89 88 87 85 84 82 80 78 77 75 73 72 70 69 68 67 66 64 63 61 60 59 58 57 55 54 53 52 52 52 53 54 54 53 52 51 51 52 53 53 54 55 55 57 58 59 61 62 63 64 65 67 69 71 73 75 77 79 82 84 86 89 91 94 96 97 100 102 105 108
104 103 102 100 98 97 96 95 94 93 92 92 91 90 89 88 87 86 85 83 82 80 78 76 74 73 71 70 68 67 66 65 64 62 61 60 59 58 57 55 54 53 52 51 51 51 51 51 52 51 51 50 50 50 51 51 52 52 53 54 56 57 58 59 61 62 63 65 66 68 70 72 75 77 79 82 84 87 90 92 94 95 97 100 103 106
104 102 101 99 97 96 94 93 92 92 91 90 89 88 87 86 86 84 83 82 80 78 76 74 72 71 69 67 66 65 64 63 62 61 60 58 57 56 55 54 53 51 51 50 49 49 49 49 49 49 49 49 48 48 48 49 50 51 51 52 54 55 56 57 58 59 61 62 64 66 68 70 72 74 77 79 82 85 88 90 92 94 96 98 101 104
103 101 99 98 96 95 93 92 91 90 89 88 87 86 86 85 84 83 81 80 78 76 75 73 71 69 67 66 65 64 63 62 61 60 58 57 56 55 54 52 51 50 49 49 48 48 47 47 47 47 47 47 47 46 46 47 48 49 50 50 51 53 54 55 56 57 59 60 62 64 65 67 70 72 75 77 80 83 86 88 90 92 94 96 99 102
102 100 98 96 95 94 92 91 90 89 88 87 86 85 84 83 82 81 80 78 77 75 73 71 69 67 65 64 63 62 61 61 60 59 58 56 55 54 52 51 50 49 48 47 47 47 46 46 46 45 45 45 45 45 45 45 46 47 48 49 50 50 51 52 54 55 56 58 59 61 63 65 67 70 72 75 78 81 84 86 88 90 92 95 97 100
101 99 97 95 94 92 91 90 89 87 86 85 84 83 82 82 81 80 78 77 75 73 71 69 67 66 64 62 61 60 60 59 59 58 57 55 54 52 51 50 48 47 47 46 46 45 45 44 44 44 44 44 43 43 43 43 44 45 46 47 48 49 49 50 51 53 54 56 57 59 60 63 65 67 70 73 76 78 80 82 85 87 90 92 95 98
100 98 96 94 93 92 90 89 87 86 84 83 82 82 81 80 79 78 77 75 73 72 70 68 66 64 63 61 60 59 58 58 57 56 55 54 53 51 50 48 47 46 45 45 44 44 43 43 43 42 42 42 42 42 42 42 42 43 44 45 46 47 48 49 50 51 52 53 55 56 58 60 62 65 67 70 72 74 76 78 81 84 87 89 92 95
99 97 95 94 92 91 89 88 86 85 83 82 81 80 79 78 78 76 75 73 72 70 68 66 65 63 62 60 59 58 57 56 56 55 54 53 51 50 48 47 46 45 44 43 43 43 42 42 41 41 40 40 40 40 40 40 41 42 43 44 45 45 46 47 48 49 50 52 53 54 56 58 60 62 64 66 68 70 72 75 78 81 84 87 90 93
98 96 94 93 91 90 88 87 85 83 82 81 79 78 77 77 76 75 74 72 70 68 67 65 63 62 60 59 58 57 56 55 55 54 53 52 50 49 47 46 45 44 43 42 42 41 41 40 40 39 39 39 38 38 39 39 39 40 41 42 43 44 44 45 46 47 49 50 51 52 54 55 57 59 61 63 65 67 69 72 75 78 81 84 88 91
98 96 94 92 90 89 87 85 84 82 81 80 79 77 77 76 75 74 73 71 69 67 65 64 62 61 59 58 56 55 55 54 54 53 52 51 49 48 46 45 44 43 42 41 40 40 39 39 38 38 37 37 37 37 37 37 38 39 40 41 42 42 43 44 45 46 47 48 49 51 52 54 55 57 59 61 63 64 67 69 73 76 79 82 86 89
97 95 93 91 90 88 87 85 83 81 80 79 78 77 76 75 74 73 72 70 68 67 65 63 61 60 58 57 55 54 53 53 52 52 51 50 48 47 45 44 43 42 41 40 39 39 38 38 37 37 36 36 36 36 36 36 37 38 38 39 40 41 41 42 43 44 46 47 48 49 51 52 54 55 57 58 60 62 64 67 71 74 78 81 84 87
96 94 92 90 89 87 86 84 82 81 80 79 78 77 76 75 73 72 70 69 68 66 64 62 61 59 57 56 54 53 52 51 51 50 50 49 47 46 45 43 42 41 40 39 38 38 37 36 36 35 35 35 34 34 34 35 36 36 37 38 38 39 40 41 42 43 44 45 46 48 49 50 52 53 54 56 57 59 61 65 69 72 76 79 82 86
95 93 91 90 88 87 85 84 82 81 79 78 78 77 76 75 73 71 70 68 66 65 63 62 60 58 57 55 53 52 51 50 49 49 48 48 46 45 44 42 41 40 39 38 37 37 36 35 35 34 34 33 33 33 33 34 34 35 36 36 37 37 38 39 40 41 43 44 45 46 47 48 50 51 52 53 54 56 59 63 66 70 74 77 81 84
95 93 91 89 88 87 86 84 82 81 79 78 77 76 75 74 73 71 69 68 66 64 63 61 60 58 56 54 53 51 50 49 48 47 47 46 45 44 43 42 40 39 38 37 37 36 35 34 34 33 33 32 32 32 32 32 33 34 34 35 35 36 37 37 39 40 41 42 43 44 45 46 48 49 50 51 52 54 57 61 65 68 72 75 79 82
95 93 91 90 88 87 86 84 82 80 79 77 76 75 75 73 72 71 69 67 66 64 62 61 59 58 56 54 53 51 49 48 47 46 45 45 44 43 42 41 39 38 37 36 35 35 34 33 33 32 31 31 31 31 31 31 32 32 33 33 34 34 35 36 37 38 39 40 41 42 43 45 46 47 47 48 50 52 56 59 63 66 70 73 76 80
95 93 91 90 88 87 85 84 82 80 78 77 76 75 74 72 71 70 68 67 65 63 62 60 59 57 56 54 52 51 49 48 46 45 44 43 43 42 41 40 39 37 36 35 34 34 33 32 31 31 30 30 29 29 29 30 30 31 31 32 32 33 34 35 35 36 37 39 40 41 42 43 44 44 45 46 48 51 54 58 61 65 68 71 74 77
95 93 91 90 88 87 85 83 82 80 78 77 75 74 73 72 70 69 67 65 64 62 61 60 58 56 55 53 52 50 49 48 46 45 44 43 42 41 40 39 38 37 35 34 33 32 32 31 30 30 29 29 28 28 28 28 29 29 30 30 31 32 32 33 34 35 36 37 38 39 40 41 41 42 43 45 47 51 54 57 60 63 66 69 72 74
95 93 91 90 88 87 85 83 81 80 78 76 75 74 72 71 69 67 66 64 63 61 60 59 57 56 54 53 51 50 49 47 46 45 44 42 41 40 39 38 37 36 35 33 32 31 30 30 29 28 28 27 27 27 27 27 27 28 28 29 29 30 31 32 33 34 35 35 36 37 38 39 40 41 42 44 47 50 54 57 60 62 65 67 70 73
95 93 91 90 88 87 85 83 81 79 77 76 75 74 72 71 69 67 65 63 61 60 59 57 56 55 53 52 51 49 48 47 46 44 43 42 41 40 39 37 36 35 34 33 31 30 29 29 28 27 27 26 26 26 26 26 26 26 27 27 28 29 30 31 32 33 33 34 35 36 37 38 38 40 42 44 47 50 53 56 59 62 64 66 69 71
95 93 91 90 88 87 85 83 81 79 77 76 74 73 72 70 68 66 64 62 60 59 57 56 55 54 52 51 50 48 47 46 45 44 43 41 40 39 38 37 35 34 33 32 31 29 28 28 27 26 26 25 25 25 25 25 25 25 26 26 27 28 29 30 31 31 32 33 34 35 35 36 38 40 42 44 47 50 53 56 58 61 63 65 68 70
Wind_Direction
291 291 291 291 292 292 292 292 292 292 292 293 293 293 293 293 293 293 292 292 292 292 291 291 291 290 290 289 289 289 288 288 287 287 287 286 286 285 285 284 284 283 283 282 282 281 281 281 280 280 279 279 279 278 278 277 277 276 276 275 274 273 272 271 270 270 269 269 269 269 269 269 268 268 267 267 267 267 266 265 264 263 263 262 262 261
292 292 292 292 292 292 292 292 292 293 293 293 293 293 293 293 293 292 292 292 292 291 291 291 290 290 290 289 289 288 288 287 287 287 286 286 285 285 284 284 283 283 282 282 281 281 280 280 279 279 278 278 278 277 277 277 276 276 275 274 273 273 272 271 270 269 268 268 267 267 267 267 267 267 266 266 266 266 266 265 264 263 262 262 261 261
292 292 292 292 292 293 293 293 293 293 293 293 293 293 293 293 293 292 292 292 291 291 290 290 290 289 289 288 288 287 287 286 286 285 285 284 284 284 283 283 282 282 281 281 280 280 279 279 278 278 278 277 277 276 276 276 275 275 274 273 273 272 271 270 269 268 267 267 266 266 265 265 266 266 265 265 264 264 264 264 264 263 262 262 261 260
292 293 293 293 293 293 293 293 294 294 294 294 293 293 293 293 292 292 291 291 290 290 289 289 288 288 287 287 286 286 285 285 284 284 283 283 282 282 281 281 281 280 280 279 279 278 278 278 277 277 276 276 276 275 275 274 274 274 273 272 272 271 270 269 268 268 267 266 265 264 264 264 263 264 264 263 263 263 263 263 263 263 262 261 261 260
293 293 293 294 294 294 294 294 294 294 294 294 293 293 293 292 291 291 290 290 289 289 288 288 287 287 286 286 285 285 284 284 283 283 282 282 281 281 280 280 279 279 278 278 277 277 276 276 276 275 275 275 274 274 273 273 273 272 272 271 271 270 269 268 268 267 266 265 264 263 263 262 262 262 262 262 261 261 261 261 261 261 261 261 260 260
294 294 294 295 295 295 295 295 295 294 294 294 293 293 292 292 291 291 290 290 289 289 288 288 288 287 287 286 286 285 285 284 284 283 283 282 281 281 280 279 279 278 277 277 276 276 275 275 274 274 273 273 273 272 272 271 271 270 270 270 269 269 268 267 267 266 265 264 263 263 262 261 261 260 260 260 260 259 259 259 259 259 260 260 260 259
295 295 295 295 295 295 295 295 295 294 294 294 293 293 292 292 291 291 291 291 290 290 290 289 289 288 288 288 287 287 286 286 285 284 284 283 282 282 281 280 279 279 278 277 276 276 275 274 274 273 272 272 271 271 270 270 269 269 268 268 268 267 267 266 266 265 264 264 263 262 261 261 260 259 259 258 258 258 258 257 257 257 257 258 258 258
296 296 296 296 296 296 295 295 295 294 294 294 294 294 293 293 293 293 292 292 292 291 291 291 290 290 289 289 288 288 287 287 286 285 285 284 283 283 282 281 281 280 279 278 277 277 276 275 274 273 272 271 271 270 269 268 268 267 267 266 266 266 265 265 264 264 263 263 262 261 260 260 259 258 258 257 257 257 256 256 256 255 255 256 256 257
297 297 296 296 296 296 296 296 295 295 295 295 295 295 295 295 294 294 294 293 293 292 292 292 291 291 290 290 289 289 288 287 286 286 285 285 284 283 283 282 281 281 280 279 278 277 277 276 275 274 273 272 271 270 269 268 267 266 265 265 264 264 263 263 263 262 262 262 261 260 259 259 258 257 257 256 256 255 255 255 255 254 254 254 254 255
297 297 297 297 297 297 297 297 297 297 296 296 296 296 296 296 295 295 295 294 294 293 293 293 292 291 291 290 289 289 288 287 287 286 285 285 284 284 283 282 282 281 280 280 279 278 277 276 275 274 273 272 271 270 269 268 267 266 265 264 263 262 262 261 261 261 261 260 260 259 258 257 257 256 256 255 255 254 254 253 253 253 253 253 253 253
298 298 298 298 298 298 298 298 298 298 298 297 297 297 296 296 296 296 296 295 294 294 293 293 292 292 291 290 289 288 288 287 286 286 285 285 284 284 283 282 282 281 280 280 279 278 278 277 276 275 274 273 272 270 269 268 267 265 264 263 262 261 261 260 259 259 259 258 258 258 257 256 256 255 255 255 254 253 253 252 252 252 252 252 252 252
299 299 300 300 300 300 300 299 299 299 298 298 298 298 298 297 297 296 296 296 295 294 294 293 292 291 291 290 289 288 288 287 286 286 286 285 285 284 283 283 282 281 280 280 279 278 277 277 276 275 274 273 272 270 269 268 267 265 264 263 262 261 260 259 258 257 257 257 256 256 256 255 254 254 254 253 253 252 252 251 251 250 250 251 251 251
301 301 301 301 301 301 301 300 300 300 299 299 299 299 299 298 297 297 296 296 295 294 294 293 292 291 291 290 289 289 288 287 287 287 286 286 285 284 284 283 282 282 281 280 279 278 277 276 275 274 273 272 271 270 269 268 267 265 264 262 261 260 259 258 257 256 255 255 255 254 254 253 253 252 252 252 252 251 251 250 249 249 249 249 249 249
302 302 302 302 302 301 301 301 301 301 300 300 300 299 299 298 298 297 297 296 295 294 294 293 292 292 291 290 290 289 288 288 288 287 287 286 286 285 284 284 283 282 281 281 280 279 278 276 275 274 273 272 271 270 269 267 266 265 264 262 261 259 258 257 256 255 254 253 253 253 252 252 251 251 251 250 250 250 250 249 249 248 248 247 248 248
303 303 303 303 303 302 302 302 302 301 301 300 300 300 299 298 298 297 297 296 295 295 294 293 293 292 291 291 290 290 289 289 288 288 288 287 287 286 285 284 284 283 282 281 280 279 278 276 275 274 273 271 270 269 268 267 265 264 263 262 260 259 257 256 255 254 253 252 251 251 250 250 250 249 249 249 249 248 248 248 247 247 247 246 246 246
304 304 304 303 303 303 303 302 302 302 301 301 300 300 299 299 298 297 297 296 295 295 294 294 293 292 292 291 291 290 290 289 289 289 289 288 287 287 286 285 285 284 283 282 281 279 278 276 275 273 272 271 269 268 267 266 264 263 262 261 259 258 257 255 254 253 252 251 250 249 249 248 248 248 247 247 247 247 247 247 246 246 246 245 245 245
305 304 304 304 304 303 303 303 302 302 302 301 301 300 299 299 298 298 297 296 296 295 295 294 293 293 292 292 291 291 290 290 290 290 289 289 288 288 287 286 285 284 283 282 280 279 277 276 274 273 271 270 269 267 266 265 263 262 261 260 258 257 256 254 253 252 251 250 249 248 247 246 246 246 246 245 245 245 245 245 245 245 244 244 244 244
305 305 305 305 304 304 303 303 303 302 302 301 301 300 300 299 298 298 297 297 296 296 295 295 294 293 293 292 292 291 291 290 290 290 290 289 289 288 287 287 286 285 283 282 280 278 277 275 273 272 271 269 268 266 265 264 263 261 260 259 257 256 255 254 252 251 250 249 247 246 245 245 244 244 244 244 244 244 244 244 244 244 243 243 243 243
306 305 305 305 305 304 304 304 303 303 302 302 301 301 300 300 299 298 298 297 297 296 296 295 295 294 294 293 292 292 292 291 291 291 290 290 290 289 288 287 286 285 283 281 280 278 276 274 273 271 270 268 267 266 264 263 262 261 259 258 256 255 254 253 251 250 249 248 246 245 244 243 243 242 242 242 242 242 242 242 242 242 242 242 242 241
306 306 306 305 305 305 304 304 304 303 303 302 302 301 301 300 300 299 298 298 297 297 296 296 296 295 294 294 293 293 293 292 292 292 291 291 290 290 289 287 286 285 283 281 279 278 276 274 272 271 269 268 267 265 264 263 262 260 259 257 256 254 253 252 250 249 248 247 246 244 243 242 241 241 240 240 240 240 240 241 241 241 241 241 240 240
307 306 306 306 306 306 305 305 304 304 304 303 303 302 302 301 300 300 299 298 298 298 297 297 296 296 295 295 294 294 294 293 293 292 292 292 291 290 289 288 286 285 283 281 279 277 276 274 272 271 269 268 266 265 264 262 261 260 259 257 256 254 252 251 250 248 247 246 245 244 243 241 240 239 239 238 238 239 239 239 239 239 239 239 239 239
307 307 307 307 307 306 306 306 306 305 305 304 304 303 302 302 301 300 300 299 299 298 298 298 297 297 297 296 296 295 295 295 294 294 293 293 292 291 290 288 287 285 283 281 279 278 276 274 272 271 269 267 266 265 263 262 261 260 258 257 255 254 252 250 249 248 246 245 244 243 242 241 239 238 237 237 237 237 237 237 237 238 238 238 238 238
308 308 308 308 308 308 307 307 307 306 306 305 305 304 303 303 302 301 301 300 300 300 299 299 299 299 298 298 297 297 296 296 295 295 294 294 293 292 290 289 287 285 284 282 280 278 276 275 273 271 269 268 266 264 263 262 260 259 258 256 255 253 252 250 249 247 246 244 243 242 241 240 239 237 236 235 235 235 235 236 236 236 236 237 237 237
310 310 310 309 309 309 309 308 308 307 307 306 305 305 304 303 303 302 302 302 301 301 301 301 300 300 299 299 298 298 297 297 296 296 295 295 294 292 291 289 287 286 284 282 281 279 277 275 273 271 270 268 266 264 263 261 260 259 257 256 255 253 251 250 248 247 245 244 243 241 240 239 238 237 235 234 234 233 234 234 234 234 235 235 235 236
311 311 311 311 311 311 310 310 309 308 308 307 306 306 305 305 304 304 303 303 303 303 302 302 302 301 301 300 299 299 298 297 297 296 296 295 294 292 291 289 288 286 285 283 281 280 278 276 274 272 270 268 266 265 263 261 260 258 257 256 254 253 251 250 248 247 245 243 242 241 240 238 237 236 235 234 233 232 232 232 233 233 233 233 234 234
312 313 313 312 312 312 311 311 310 310 309 308 308 307 307 306 306 305 305 305 304 304 304 303 303 302 302 301 300 299 299 298 297 297 297 296 295 293 291 289 288 287 286 284 282 280 278 276 274 272 270 269 267 265 263 261 260 258 257 256 254 253 252 250 248 246 245 243 242 240 239 238 236 235 234 233 232 231 231 231 231 231 231 232 232 233
314 314 314 314 314 313 313 312 312 311 311 310 309 309 308 308 307 307 306 306 306 306 305 305 304 304 303 302 301 301 300 299 298 298 298 297 295 293 291 290 289 288 286 285 283 281 279 277 275 273 271 269 267 265 263 262 260 258 257 256 254 253 252 250 248 246 244 243 241 240 238 237 236 235 233 232 231 231 230 230 230 230 230 230 231 231
316 316 316 316 315 315 314 314 313 313 312 312 311 310 310 309 309 308 308 308 307 307 307 306 306 305 304 303 303 302 301 300 300 299 299 298 296 294 292 291 290 289 287 286 284 282 280 277 275 273 271 270 268 266 264 262 260 259 257 256 255 253 252 250 248 246 244 243 241 240 238 237 236 234 233 232 231 230 230 229 229 229 229 229 229 230
318 318 318 317 317 316 316 315 315 314 314 313 312 312 311 311 310 310 309 309 309 308 308 308 307 306 305 305 304 303 302 301 301 300 299 298 297 295 294 292 291 290 288 287 285 283 281 278 276 274 272 270 268 266 264 262 260 259 257 256 255 253 252 250 248 246 245 243 241 240 238 237 236 234 233 232 230 230 229 229 228 228 227 227 228 228
319 319 319 319 318 318 317 317 316 315 315 314 314 313 312 312 311 311 311 310 310 310 309 309 308 307 307 306 305 304 303 302 302 301 300 299 298 296 295 293 292 291 289 287 285 283 281 279 277 275 273 271 269 266 265 263 261 259 257 256 255 253 252 250 248 247 245 243 241 240 238 237 236 234 233 231 230 229 228 228 227 227 226 226 226 227
321 321 320 320 319 319 318 318 317 317 316 315 315 314 313 313 312 312 312 311 311 311 311 310 309 309 308 307 306 305 304 303 302 302 301 300 298 297 296 294 293 291 290 288 286 284 282 280 278 276 273 271 269 267 265 263 261 259 257 256 254 253 252 250 249 247 245 243 242 240 238 237 236 234 233 231 230 229 228 228 227 226 226 225 225 225
322 322 321 321 320 320 319 319 318 318 317 316 316 315 314 314 313 313 313 313 312 312 312 311 310 310 309 308 307 306 305 304 303 302 301 300 299 298 297 295 294 292 290 288 286 284 282 281 279 277 274 272 269 267 265 263 261 259 257 256 254 253 252 250 249 247 245 243 242 240 238 237 235 234 233 231 230 229 228 227 226 226 225 224 224 224
323 323 322 322 321 321 320 320 319 319 318 317 316 316 315 315 314 314 314 314 313 313 313 312 312 311 310 309 309 307 306 305 304 303 302 301 300 299 297 296 295 293 291 289 287 285 283 281 279 278 275 273 270 268 266 264 262 260 258 256 254 253 252 250 249 247 246 244 242 240 238 237 235 234 233 231 230 229 228 227 226 225 224 223 223 222
324 324 323 323 322 322 321 321 320 320 319 318 317 317 316 316 315 315 315 315 315 314 314 313 313 312 312 311 310 308 307 306 305 304 303 302 301 299 298 297 296 294 292 290 288 286 283 281 280 278 276 273 271 268 266 264 262 260 258 256 254 253 251 250 248 247 246 244 242 240 239 237 235 234 232 231 230 228 228 227 226 225 224 223 222 221
325 325 324 324 323 322 322 322 321 320 320 319 318 318 317 317 317 316 316 316 316 315 315 314 314 313 313 312 311 309 308 307 305 304 303 302 301 300 299 298 297 295 293 291 289 287 284 282 280 278 276 274 272 269 267 264 262 260 258 256 254 253 251 250 248 247 246 244 242 241 239 237 235 233 232 230 229 228 227 226 225 224 223 222 221 221
326 326 325 324 324 323 323 323 322 321 321 320 319 319 319 318 318 318 318 317 317 317 316 315 315 314 314 313 312 310 309 308 306 305 304 303 303 302 300 299 298 296 294 292 290 287 285 283 281 278 276 274 272 270 267 265 263 261 258 257 255 253 251 249 248 247 245 244 242 241 239 237 235 234 232 230 229 228 227 226 225 224 223 222 221 220
327 326 326 325 325 324 324 324 323 323 322 321 321 320 320 320 320 319 319 319 318 318 317 316 316 315 314 314 312 311 310 308 307 306 305 304 304 303 302 300 299 297 295 293 290 288 286 284 281 279 277 275 273 270 268 265 263 260 259 257 255 253 251 249 248 246 245 243 242 241 239 238 236 234 233 231 230 229 228 226 225 224 223 222 221 220
328 327 327 326 326 325 325 325 324 324 323 322 322 322 322 321 321 321 320 320 319 319 318 317 317 316 315 314 313 312 311 309 308 307 306 305 305 304 303 301 300 298 296 293 291 289 287 285 282 280 278 275 273 270 268 265 263 261 258 257 255 253 251 249 247 246 244 243 242 240 239 238 236 235 233 232 231 230 228 227 226 224 223 222 221 220
328 328 327 327 327 326 326 326 325 325 324 324 323 323 323 323 322 322 321 321 320 320 319 318 318 317 316 315 314 313 312 310 309 308 307 306 306 305 304 302 301 299 297 294 292 290 288 286 283 281 278 276 273 271 268 266 263 260 258 256 254 253 251 249 247 245 244 242 241 240 239 237 236 235 234 232 231 230 228 227 226 224 223 222 221 220
329 329 328 328 327 327 327 327 326 326 325 325 325 324 324 324 324 323 323 322 322 321 320 319 318 318 317 316 315 314 313 312 310 309 308 307 307 306 305 303 302 300 298 296 293 291 289 287 284 282 279 277 274 271 269 266 263 260 258 256 254 252 250 248 247 245 244 242 241 239 238 237 235 234 233 232 231 229 228 226 225 224 223 222 220 219
330 330 329 329 328 328 328 328 327 327 327 326 326 326 326 326 325 325 324 324 323 322 321 320 319 319 318 317 316 315 314 313 312 311 310 309 308 307 306 304 303 301 299 297 295 292 290 288 285 283 280 278 275 272 269 266 263 260 258 256 254 252 250 248 246 245 243 241 240 239 237 236 235 233 232 231 229 228 226 225 224 223 222 221 220 219
331 330 330 329 329 329 329 329 329 328 328 328 328 328 328 327 327 326 326 325 324 323 322 321 320 320 319 318 317 316 315 314 313 312 311 310 309 308 307 306 304 303 300 298 296 294 291 289 286 284 281 278 275 272 269 266 263 260 258 256 254 252 250 248 246 244 242 241 239 238 237 235 234 233 232 231 229 227 225 224 223 222 221 220 220 219
332 331 331 330 330 330 330 330 330 330 330 330 329 329 329 329 328 328 327 326 325 324 324 323 322 321 320 319 318 317 316 315 314 313 312 311 310 309 308 307 306 304 302 300 297 295 292 290 287 284 281 278 275 272 269 266 263 260 258 256 253 251 249 247 246 244 242 241 239 238 236 235 234 233 232 230 228 226 224 223 222 221 220 220 219 218
332 332 332 331 331 331 331 332 332 332 332 331 331 331 330 330 329 329 328 327 327 326 325 324 323 322 321 320 319 318 317 317 315 314 313 312 311 310 309 308 307 305 303 301 298 296 293 291 288 285 282 279 276 272 269 266 263 260 257 255 253 251 249 247 245 243 242 240 239 237 236 235 234 232 231 229 227 225 224 222 221 220 219 219 218 218
333 333 333 333 333 333 333 333 333 333 333 333 332 332 331 331 330 330 329 328 328 327 326 325 324 323 322 321 320 320 319 318 317 316 315 314 313 312 310 309 308 306 304 302 299 297 294 292 289 286 282 279 276 272 269 266 263 260 257 255 253 250 248 246 244 243 241 240 238 237 236 234 233 232 230 228 226 224 222 221 220 220 219 218 218 217
334 334 334 334 334 334 334 334 334 334 334 333 333 333 333 332 332 331 330 329 328 327 327 326 325 324 323 322 322 321 320 320 318 317 316 315 314 313 312 310 309 307 305 303 300 298 295 293 290 286 283 280 276 273 269 266 263 260 257 255 253 250 248 246 244 242 241 239 238 237 235 234 232 231 229 227 225 223 221 220 219 219 218 218 217 217
335 335 335 335 335 335 335 335 335 335 335 334 334 334 334 333 332 332 331 330 329 328 327 326 325 324 324 323 323 322 322 321 320 319 318 317 315 314 313 312 310 308 306 304 301 299 296 293 290 287 284 280 277 273 269 266 263 260 258 255 252 250 247 245 243 242 240 239 238 236 235 233 231 230 228 225 223 221 220 219 218 218 218 217 217 217
336 336 336 336 336 336 336 336 336 336 336 335 335 335 334 334 333 333 332 331 330 329 328 327 326 325 325 324 324 324 323 323 322 321 320 319 317 316 314 313 311 310 307 305 303 300 297 294 291 288 285 281 277 273 270 266 263 260 257 255 252 250 247 245 242 241 239 238 236 235 234 232 231 228 226 224 221 220 218 218 217 217 217 217 216 216
337 337 337 337 337 337 337 337 337 337 336 336 336 336 335 335 334 333 333 332 331 330 328 327 327 326 326 325 325 325 324 324 323 322 321 320 319 317 316 314 312 311 308 306 304 301 298 295 292 289 285 282 278 274 270 266 263 260 257 254 252 249 246 244 241 239 238 236 235 233 232 231 229 226 224 222 220 219 218 217 216 216 216 215 215 215
338 338 338 338 338 338 338 338 338 337 337 337 337 337 336 336 335 334 333 332 331 330 329 328 327 327 326 326 326 326 325 325 324 323 323 322 320 319 317 315 314 312 309 307 304 302 299 296 293 290 286 282 278 274 270 266 263 259 256 253 251 248 245 243 241 238 236 234 233 232 230 228 226 224 222 220 219 218 217 216 216 215 215 214 214 213
338 338 338 338 338 338 338 338 338 338 338 338 338 337 337 337 336 335 334 334 332 331 330 329 328 328 327 327 327 327 326 326 325 325 324 323 322 320 318 317 315 313 310 308 305 302 299 297 294 290 287 283 279 274 270 266 263 259 256 252 250 247 244 242 240 238 235 233 231 229 228 226 224 222 220 219 218 217 216 216 215 215 214 213 213 212
Height
10491 10488 10485 10482 10480 10476 10472 10469 10467 10465 10461 10457 10455 10453 10450 10447 10443 10440 10438 10435 10433 10430 10428 10425 10422 10420 10417 10414 10412 10409 10407 10405 10403 10401 10400 10398 10397 10395 10395 10393 10393 10392 10392 10392 10391 10391 10390 10390 10390 10391 10391 10392 10392 10393 10395 10397 10399 10402 10404 10407 10410 10412 10414 10417 10418 10420 10421 10422 10423 10425 10426 10428 10430 10433 10435 10437 10438 10440 10442 10445 10448 10450 10453 10455 10457 10459
10483 10480 10477 10475 10472 10469 10465 10461 10460 10458 10455 10451 10448 10445 10443 10440 10436 10432 10430 10427 10424 10422 10419 10417 10413 10410 10408 10405 10402 10400 10397 10394 10392 10390 10388 10387 10385 10384 10383 10382 10381 10380 10380 10380 10379 10379 10379 10380 10380 10380 10380 10381 10382 10383 10385 10387 10388 10391 10393 10396 10398 10401 10403 10406 10408 10410 10412 10414 10415 10417 10418 10420 10422 10424 10427 10429 10431 10432 10435 10437 10439 10442 10445 10447 10450 10452
10476 10473 10469 10467 10465 10462 10458 10454 10452 10450 10447 10444 10441 10438 10435 10432 10428 10425 10422 10419 10416 10413 10410 10408 10405 10402 10398 10396 10393 10390 10388 10385 10382 10380 10378 10376 10374 10373 10372 10370 10370 10369 10368 10368 10367 10367 10367 10367 10368 10368 10369 10370 10371 10373 10374 10376 10378 10380 10382 10384 10387 10389 10392 10395 10398 10400 10402 10405 10407 10408 10410 10412 10413 10415 10418 10421 10423 10425 10427 10429 10431 10434 10437 10440 10442 10444
10469 10466 10462 10459 10457 10453 10450 10447 10444 10441 10438 10436 10433 10430 10427 10424 10420 10417 10414 10412 10408 10405 10401 10398 10396 10393 10390 10387 10383 10381 10378 10375 10372 10370 10367 10365 10363 10362 10360 10359 10358 10357 10357 10356 10355 10355 10355 10355 10356 10357 10357 10358 10360 10362 10363 10365 10367 10369 10370 10372 10375 10378 10380 10383 10386 10388 10392 10394 10397 10399 10402 10404 10406 10408 10410 10412 10415 10418 10420 10422 10423 10426 10428 10432 10435 10437
10462 10458 10455 10452 10448 10445 10442 10438 10436 10433 10430 10427 10425 10422 10418 10415 10412 10409 10406 10403 10400 10396 10392 10389 10386 10383 10380 10377 10373 10370 10368 10365 10361 10358 10356 10353 10352 10350 10348 10347 10346 10345 10345 10344 10343 10343 10343 10343 10344 10345 10345 10347 10348 10350 10352 10354 10356 10357 10358 10361 10363 10366 10368 10371 10374 10377 10380 10383 10387 10389 10393 10396 10398 10400 10402 10404 10407 10410 10412 10415 10417 10418 10421 10423 10427 10430
10453 10451 10448 10444 10440 10437 10433 10431 10428 10425 10422 10419 10416 10413 10410 10407 10403 10400 10396 10393 10389 10386 10382 10378 10375 10372 10368 10365 10362 10358 10355 10352 10348 10345 10343 10340 10338 10337 10335 10334 10333 10332 10331 10330 10330 10330 10330 10331 10332 10332 10333 10335 10336 10338 10340 10342 10344 10345 10347 10349 10352 10354 10357 10359 10362 10365 10368 10372 10375 10379 10383 10387 10389 10392 10393 10395 10398 10401 10404 10407 10410 10412 10413 10416 10418 10422
10445 10442 10440 10437 10433 10429 10426 10423 10420 10417 10413 10410 10406 10403 10400 10396 10393 10389 10385 10382 10378 10374 10370 10367 10363 10359 10356 10353 10348 10345 10342 10338 10335 10332 10329 10326 10324 10322 10320 10319 10318 10317 10317 10316 10316 10316 10317 10317 10318 10318 10320 10321 10323 10325 10327 10329 10331 10333 10335 10337 10340 10342 10345 10347 10350 10353 10356 10360 10364 10368 10372 10377 10380 10382 10383 10387 10389 10392 10395 10398 10402 10405 10407 10408 10411 10414
10438 10433 10430 10428 10425 10422 10417 10414 10412 10408 10405 10401 10396 10392 10389 10385 10381 10377 10374 10370 10366 10362 10358 10355 10350 10347 10343 10340 10336 10332 10327 10323 10321 10318 10315 10312 10310 10308 10306 10304 10303 10302 10301 10301 10301 10301 10302 10302 10302 10303 10305 10306 10308 10311 10313 10315 10318 10320 10322 10325 10327 10330 10333 10335 10338 10340 10343 10348 10352 10357 10362 10367 10369 10371 10373 10377 10380 10383 10387 10390 10393 10397 10399 10402 10404 10407
10431 10427 10422 10419 10417 10414 10410 10404 10400 10397 10395 10392 10387 10382 10378 10375 10370 10365 10362 10358 10354 10350 10346 10342 10338 10333 10330 10326 10322 10318 10313 10309 10305 10303 10301 10298 10296 10293 10291 10290 10288 10287 10285 10285 10285 10285 10286 10286 10287 10287 10288 10290 10292 10295 10297 10300 10303 10306 10308 10312 10314 10317 10320 10323 10325 10328 10331 10335 10340 10345 10351 10355 10358 10360 10363 10367 10371 10375 10378 10381 10384 10388 10391 10394 10397 10399
10423 10420 10415 10411 10408 10405 10402 10397 10391 10386 10383 10380 10375 10371 10368 10365 10360 10355 10350 10345 10342 10338 10335 10330 10325 10320 10316 10312 10308 10303 10300 10296 10291 10288 10285 10284 10282 10279 10277 10275 10273 10272 10271 10270 10270 10270 10270 10270 10270 10271 10272 10273 10275 10277 10280 10283 10287 10290 10293 10297 10300 10303 10307 10310 10313 10315 10318 10322 10327 10333 10339 10343 10347 10350 10352 10357 10361 10365 10368 10372 10375 10378 10382 10385 10388 10391
10414 10410 10407 10403 10398 10395 10392 10387 10382 10377 10373 10369 10364 10359 10355 10352 10350 10345 10340 10333 10328 10325 10323 10318 10313 10307 10303 10298 10293 10288 10285 10282 10278 10274 10271 10270 10268 10266 10263 10261 10259 10258 10257 10257 10256 10255 10255 10255 10255 10255 10256 10257 10259 10261 10263 10267 10270 10274 10278 10281 10285 10288 10292 10296 10299 10302 10306 10310 10314 10320 10326 10332 10335 10338 10342 10346 10350 10355 10358 10362 10365 10368 10372 10375 10379 10383
10406 10402 10398 10394 10390 10385 10381 10377 10372 10368 10363 10359 10354 10348 10343 10339 10336 10333 10328 10322 10317 10313 10309 10305 10299 10294 10289 10284 10278 10273 10268 10266 10264 10261 10258 10255 10253 10251 10249 10247 10245 10244 10243 10243 10243 10242 10241 10240 10240 10240 10240 10242 10243 10245 10247 10250 10253 10257 10262 10265 10268 10272 10276 10280 10285 10288 10292 10297 10301 10307 10313 10318 10323 10327 10331 10335 10339 10343 10348 10352 10356 10360 10363 10366 10370 10373
10398 10393 10390 10385 10381 10377 10372 10367 10362 10357 10353 10348 10344 10339 10333 10327 10323 10319 10315 10310 10304 10300 10296 10292 10286 10280 10275 10270 10265 10259 10253 10251 10249 10247 10245 10243 10240 10237 10235 10233 10232 10230 10230 10230 10230 10228 10227 10226 10226 10225 10225 10226 10227 10229 10232 10234 10237 10241 10245 10248 10252 10257 10260 10265 10269 10273 10278 10283 10288 10293 10298 10305 10310 10315 10320 10323 10327 10332 10337 10341 10345 10350 10353 10357 10360 10364
10389 10385 10381 10377 10372 10367 10363 10358 10353 10348 10342 10338 10333 10328 10323 10317 10311 10307 10302 10297 10291 10286 10283 10278 10273 10267 10261 10255 10250 10244 10239 10236 10235 10233 10232 10230 10227 10224 10222 10219 10218 10217 10217 10217 10216 10214 10213 10212 10212 10212 10211 10212 10213 10214 10216 10218 10222 10225 10229 10232 10237 10240 10245 10249 10253 10258 10263 10268 10273 10279 10285 10290 10297 10302 10307 10312 10316 10320 10325 10330 10335 10339 10343 10347 10351 10355
10381 10377 10372 10367 10363 10358 10353 10348 10343 10338 10333 10327 10323 10318 10312 10305 10300 10294 10289 10284 10278 10273 10269 10265 10260 10254 10248 10243 10237 10230 10225 10221 10220 10220 10219 10217 10214 10211 10208 10206 10205 10203 10204 10204 10203 10200 10199 10198 10198 10197 10197 10197 10198 10200 10201 10203 10207 10210 10213 10217 10221 10225 10229 10233 10238 10242 10248 10253 10258 10264 10270 10276 10282 10288 10293 10298 10303 10308 10313 10318 10323 10328 10333 10337 10341 10345
10373 10369 10364 10359 10354 10349 10344 10339 10334 10329 10323 10318 10312 10307 10301 10295 10288 10282 10277 10271 10266 10260 10256 10252 10247 10242 10236 10230 10225 10219 10213 10208 10205 10205 10206 10205 10202 10198 10195 10193 10192 10190 10191 10191 10189 10187 10185 10184 10183 10183 10182 10183 10184 10185 10187 10188 10192 10195 10198 10202 10205 10209 10213 10218 10222 10227 10232 10237 10243 10249 10255 10262 10268 10273 10280 10285 10291 10296 10301 10306 10312 10317 10322 10327 10331 10335
10366 10361 10356 10351 10345 10340 10335 10330 10324 10318 10313 10308 10302 10296 10290 10283 10277 10270 10264 10258 10253 10248 10243 10239 10235 10230 10224 10218 10213 10207 10203 10198 10194 10192 10193 10192 10190 10186 10183 10181 10178 10178 10178 10178 10176 10173 10171 10170 10169 10168 10168 10169 10170 10171 10172 10174 10177 10180 10183 10187 10190 10195 10198 10203 10207 10212 10217 10222 10228 10233 10240 10247 10253 10259 10265 10272 10278 10283 10288 10294 10299 10305 10310 10315 10320 10325
10358 10353 10348 10343 10337 10332 10326 10320 10315 10308 10303 10297 10292 10285 10278 10272 10265 10259 10253 10247 10241 10236 10231 10227 10222 10218 10213 10207 10201 10195 10192 10188 10184 10182 10181 10180 10178 10175 10172 10168 10166 10165 10165 10164 10162 10160 10158 10157 10155 10155 10155 10155 10156 10157 10158 10160 10162 10165 10168 10172 10176 10180 10185 10188 10193 10198 10202 10207 10213 10218 10225 10232 10238 10245 10251 10257 10264 10270 10276 10281 10287 10292 10298 10303 10309 10314
10350 10345 10340 10334 10328 10322 10317 10311 10305 10299 10292 10286 10280 10274 10268 10261 10254 10248 10242 10236 10230 10225 10220 10215 10210 10205 10201 10195 10190 10184 10180 10177 10173 10172 10170 10170 10167 10164 10160 10157 10154 10153 10152 10151 10148 10147 10145 10143 10143 10142 10142 10142 10143 10144 10145 10147 10149 10152 10155 10158 10162 10167 10171 10175 10179 10183 10188 10193 10198 10203 10210 10217 10223 10230 10237 10243 10250 10257 10262 10268 10274 10280 10285 10292 10297 10303
10342 10337 10332 10326 10320 10313 10307 10300 10295 10289 10282 10275 10269 10263 10257 10250 10244 10237 10231 10225 10219 10214 10209 10205 10200 10194 10189 10183 10178 10173 10169 10166 10163 10161 10160 10159 10157 10153 10149 10145 10142 10141 10140 10138 10135 10133 10132 10131 10130 10130 10130 10130 10131 10132 10133 10135 10137 10140 10142 10146 10150 10153 10157 10161 10165 10170 10174 10179 10184 10190 10196 10202 10209 10216 10223 10230 10237 10243 10249 10255 10261 10267 10273 10279 10286 10292
10334 10328 10322 10317 10312 10305 10298 10290 10283 10278 10272 10265 10258 10252 10245 10240 10233 10227 10221 10215 10209 10203 10198 10194 10188 10183 10178 10172 10167 10162 10158 10155 10152 10150 10149 10148 10146 10142 10138 10134 10131 10129 10128 10125 10123 10122 10120 10119 10119 10119 10119 10119 10120 10121 10122 10123 10125 10128 10130 10133 10137 10140 10144 10148 10152 10157 10161 10166 10172 10177 10183 10189 10196 10203 10210 10217 10223 10230 10235 10242 10248 10254 10260 10267 10273 10281
10326 10319 10313 10307 10301 10295 10288 10280 10273 10267 10260 10253 10247 10241 10235 10228 10222 10216 10210 10205 10199 10193 10188 10183 10178 10173 10168 10162 10155 10150 10147 10143 10140 10139 10138 10137 10135 10132 10127 10123 10120 10118 10117 10115 10112 10111 10110 10108 10108 10108 10108 10109 10110 10111 10112 10113 10115 10117 10118 10122 10125 10128 10132 10136 10140 10144 10148 10154 10159 10165 10170 10177 10183 10189 10196 10203 10210 10216 10222 10228 10234 10241 10248 10255 10262 10269
10317 10310 10303 10297 10290 10283 10277 10270 10263 10256 10249 10243 10237 10231 10225 10218 10212 10206 10200 10194 10188 10183 10178 10173 10168 10163 10157 10151 10145 10140 10135 10132 10130 10128 10128 10127 10124 10121 10117 10112 10109 10107 10106 10104 10102 10101 10100 10099 10098 10098 10098 10099 10100 10101 10102 10103 10104 10106 10108 10110 10113 10117 10120 10124 10128 10132 10137 10142 10147 10152 10158 10163 10170 10177 10183 10190 10196 10202 10208 10214 10221 10228 10235 10242 10250 10257
10306 10299 10292 10286 10279 10273 10266 10259 10252 10245 10238 10233 10227 10220 10215 10209 10203 10197 10190 10185 10179 10173 10168 10163 10158 10153 10147 10142 10136 10130 10126 10122 10120 10118 10117 10117 10114 10110 10105 10102 10099 10098 10097 10095 10093 10092 10091 10090 10089 10088 10089 10090 10090 10092 10093 10093 10095 10095 10097 10099 10102 10105 10108 10112 10117 10122 10126 10131 10136 10140 10145 10151 10157 10164 10170 10177 10183 10188 10195 10200 10207 10215 10223 10230 10238 10245
10296 10289 10283 10276 10269 10262 10255 10248 10241 10234 10228 10222 10216 10210 10204 10198 10192 10187 10181 10175 10170 10164 10159 10154 10149 10144 10138 10132 10127 10121 10117 10113 10110 10109 10108 10107 10105 10101 10096 10092 10090 10089 10088 10087 10084 10083 10082 10081 10080 10080 10080 10080 10082 10083 10083 10085 10085 10087 10088 10090 10092 10095 10098 10102 10107 10112 10116 10120 10125 10130 10134 10140 10145 10152 10158 10164 10170 10176 10182 10187 10195 10202 10210 10218 10226 10233
10287 10280 10273 10265 10258 10251 10243 10237 10230 10223 10217 10210 10205 10199 10193 10187 10182 10176 10171 10166 10160 10155 10150 10145 10140 10135 10130 10123 10118 10112 10108 10104 10102 10100 10099 10098 10095 10091 10087 10083 10082 10081 10080 10078 10076 10074 10073 10072 10072 10072 10072 10072 10073 10074 10075 10076 10077 10078 10079 10081 10083 10085 10089 10093 10097 10102 10106 10110 10114 10118 10123 10128 10133 10140 10147 10153 10158 10164 10170 10175 10182 10190 10198 10206 10213 10222
10276 10268 10262 10254 10247 10240 10232 10225 10218 10212 10205 10199 10193 10187 10182 10176 10170 10165 10160 10156 10151 10146 10141 10136 10130 10125 10120 10115 10110 10103 10099 10095 10093 10092 10091 10089 10086 10082 10078 10076 10075 10073 10072 10070 10068 10066 10065 10063 10063 10064 10065 10065 10065 10067 10067 10068 10069 10070 10071 10073 10075 10077 10080 10084 10088 10092 10096 10100 10104 10108 10113 10117 10123 10128 10135 10141 10147 10153 10158 10164 10171 10178 10187 10194 10202 10210
10266 10258 10251 10243 10237 10229 10222 10215 10208 10202 10195 10188 10183 10177 10172 10166 10160 10155 10150 10145 10141 10137 10132 10127 10122 10116 10111 10107 10101 10096 10091 10087 10085 10084 10083 10080 10077 10073 10070 10068 10068 10067 10065 10063 10061 10058 10057 10056 10056 10057 10057 10058 10058 10058 10059 10060 10062 10062 10063 10065 10067 10069 10072 10076 10079 10083 10087 10090 10094 10098 10102 10107 10112 10118 10125 10130 10136 10142 10148 10153 10160 10167 10175 10183 10192 10199
10257 10249 10242 10235 10227 10220 10213 10206 10199 10192 10186 10180 10173 10167 10162 10157 10151 10146 10140 10136 10132 10127 10123 10118 10113 10108 10103 10098 10093 10088 10083 10079 10077 10076 10075 10072 10069 10065 10063 10062 10060 10060 10058 10057 10054 10051 10049 10048 10049 10050 10050 10051 10051 10051 10052 10053 10054 10055 10057 10058 10060 10062 10065 10067 10071 10074 10078 10082 10085 10089 10093 10098 10103 10108 10115 10120 10126 10132 10138 10143 10149 10157 10165 10173 10181 10188
10248 10240 10233 10225 10218 10211 10205 10198 10191 10184 10178 10171 10165 10158 10153 10147 10142 10137 10133 10128 10123 10119 10114 10109 10105 10100 10095 10090 10086 10081 10077 10073 10070 10068 10067 10064 10061 10058 10057 10055 10053 10053 10052 10050 10048 10045 10042 10041 10042 10043 10044 10044 10044 10044 10045 10046 10047 10048 10050 10051 10053 10055 10057 10060 10063 10066 10070 10073 10077 10081 10085 10090 10095 10100 10105 10110 10116 10122 10128 10133 10139 10147 10154 10162 10170 10178
10240 10232 10225 10217 10210 10203 10197 10190 10183 10177 10170 10164 10157 10151 10145 10139 10134 10130 10125 10120 10116 10111 10106 10102 10097 10092 10087 10083 10078 10074 10070 10067 10063 10061 10059 10057 10054 10052 10050 10048 10047 10046 10045 10044 10042 10039 10036 10034 10034 10036 10037 10038 10038 10037 10038 10039 10040 10042 10043 10045 10046 10048 10050 10052 10055 10058 10062 10065 10069 10073 10077 10082 10087 10092 10097 10102 10107 10113 10118 10124 10130 10137 10145 10153 10160 10168
10233 10226 10218 10211 10204 10197 10190 10183 10177 10170 10163 10157 10150 10144 10138 10132 10127 10122 10117 10113 10108 10103 10099 10094 10090 10085 10081 10077 10072 10068 10063 10060 10057 10055 10053 10050 10048 10045 10043 10042 10040 10040 10038 10037 10036 10034 10032 10028 10028 10028 10030 10031 10032 10032 10032 10033 10034 10035 10037 10038 10039 10041 10043 10046 10048 10052 10055 10058 10062 10065 10069 10073 10078 10083 10088 10093 10098 10104 10109 10115 10121 10128 10136 10143 10150 10158
10227 10220 10212 10205 10198 10191 10184 10178 10171 10164 10158 10151 10145 10138 10132 10126 10120 10115 10110 10106 10101 10097 10092 10087 10083 10078 10075 10070 10066 10062 10058 10054 10052 10049 10047 10045 10042 10039 10037 10036 10035 10033 10032 10031 10030 10028 10027 10024 10023 10022 10023 10024 10025 10026 10026 10027 10028 10029 10030 10032 10033 10035 10037 10039 10042 10045 10047 10051 10054 10058 10062 10065 10070 10075 10080 10085 10090 10095 10100 10106 10112 10120 10127 10133 10140 10148
10221 10213 10207 10199 10192 10185 10178 10172 10165 10158 10152 10145 10138 10132 10126 10120 10114 10109 10104 10099 10095 10090 10086 10081 10077 10073 10068 10065 10060 10056 10052 10048 10045 10043 10041 10039 10037 10034 10032 10030 10029 10028 10026 10025 10023 10022 10021 10020 10018 10017 10017 10018 10019 10020 10021 10022 10022 10023 10024 10025 10027 10028 10030 10033 10035 10038 10041 10044 10047 10050 10054 10058 10062 10067 10072 10077 10082 10087 10092 10097 10103 10110 10117 10124 10131 10138
10215 10208 10201 10193 10187 10180 10173 10167 10160 10153 10146 10140 10133 10127 10120 10114 10108 10103 10098 10093 10088 10083 10079 10075 10072 10067 10063 10059 10055 10050 10046 10042 10040 10037 10035 10033 10032 10029 10027 10025 10024 10022 10021 10019 10018 10017 10015 10014 10013 10013 10012 10012 10013 10014 10015 10016 10017 10017 10018 10020 10021 10023 10025 10027 10029 10032 10034 10037 10040 10043 10047 10051 10055 10059 10064 10068 10073 10078 10083 10089 10095 10102 10108 10115 10122 10128
10210 10202 10195 10188 10182 10175 10167 10161 10154 10147 10140 10134 10127 10121 10115 10108 10102 10097 10092 10087 10082 10078 10073 10069 10065 10062 10058 10055 10050 10046 10042 10037 10034 10032 10030 10028 10026 10024 10022 10020 10019 10017 10016 10014 10012 10011 10010 10009 10008 10008 10007 10007 10007 10008 10010 10011 10012 10012 10013 10014 10015 10017 10019 10021 10023 10025 10028 10031 10033 10037 10040 10044 10048 10052 10057 10061 10065 10070 10075 10082 10088 10095 10101 10107 10113 10120
10205 10197 10190 10183 10177 10170 10163 10156 10149 10143 10136 10129 10122 10116 10110 10103 10097 10092 10086 10082 10077 10072 10068 10063 10060 10057 10053 10050 10046 10042 10037 10033 10030 10027 10025 10023 10021 10020 10018 10015 10014 10013 10011 10009 10007 10006 10005 10003 10003 10003 10003 10002 10003 10003 10004 10005 10006 10007 10007 10008 10010 10012 10013 10015 10018 10020 10022 10025 10028 10031 10035 10038 10041 10045 10050 10053 10058 10063 10069 10075 10082 10088 10094 10100 10106 10112
10200 10193 10185 10178 10172 10165 10158 10152 10145 10138 10131 10125 10118 10112 10105 10098 10092 10087 10081 10076 10072 10067 10063 10058 10055 10052 10048 10045 10042 10037 10033 10030 10026 10023 10020 10018 10017 10015 10013 10011 10009 10008 10006 10005 10003 10001 10000 9999 9998 9998 9998 9998 9998 9998 9999 10000 10001 10002 10002 10003 10005 10007 10008 10010 10012 10014 10017 10019 10022 10025 10028 10032 10035 10038 10043 10047 10052 10058 10063 10069 10075 10082 10087 10093 10099 10106
10195 10188 10181 10173 10167 10160 10153 10147 10140 10133 10127 10120 10114 10108 10101 10095 10088 10082 10077 10072 10067 10063 10058 10054 10050 10047 10043 10040 10037 10033 10029 10025 10022 10018 10016 10014 10012 10010 10008 10007 10005 10003 10001 10000 9998 9997 9995 9995 9993 9993 9993 9993 9993 9993 9994 9995 9995 9997 9997 9998 9999 10001 10003 10005 10007 10009 10011 10013 10017 10019 10022 10026 10029 10033 10037 10042 10047 10052 10057 10063 10069 10075 10081 10087 10093 10100
10190 10183 10176 10169 10163 10156 10149 10143 10136 10129 10122 10116 10110 10103 10097 10091 10085 10078 10073 10068 10063 10058 10054 10050 10047 10043 10039 10036 10033 10029 10025 10022 10018 10015 10012 10010 10008 10006 10004 10002 10000 9998 9997 9995 9994 9993 9992 9990 9990 9989 9989 9989 9988 9989 9989 9990 9991 9992 9992 9993 9994 9996 9998 10000 10002 10004 10006 10008 10011 10013 10017 10020 10023 10027 10031 10036 10041 10046 10052 10058 10063 10070 10075 10081 10087 10093
10187 10179 10172 10165 10158 10152 10145 10138 10132 10125 10118 10111 10105 10098 10093 10087 10080 10074 10068 10063 10058 10054 10050 10046 10042 10038 10035 10032 10029 10025 10022 10018 10014 10011 10008 10005 10003 10002 10000 9998 9996 9994 9993 9991 9990 9988 9987 9986 9985 9985 9985 9985 9985 9985 9985 9985 9986 9987 9988 9989 9990 9992 9993 9995 9997 9999 10001 10003 10006 10008 10012 10015 10018 10022 10025 10030 10035 10040 10046 10052 10058 10063 10069 10075 10080 10086
10182 10175 10168 10160 10153 10147 10140 10133 10127 10120 10113 10107 10100 10094 10088 10082 10077 10071 10065 10060 10055 10050 10046 10042 10038 10035 10031 10028 10025 10022 10018 10015 10011 10007 10004 10002 10000 9997 9996 9994 9992 9990 9988 9987 9985 9984 9983 9982 9982 9980 9980 9980 9980 9980 9981 9981 9982 9982 9983 9984 9986 9987 9988 9991 9993 9995 9997 9998 10001 10003 10007 10010 10013 10017 10020 10025 10030 10035 10040 10046 10052 10057 10062 10068 10073 10079
10178 10171 10163 10157 10149 10142 10135 10128 10122 10115 10108 10102 10095 10089 10083 10078 10073 10067 10062 10057 10052 10047 10042 10038 10034 10030 10027 10024 10021 10018 10015 10012 10008 10004 10001 9998 9996 9993 9992 9990 9988 9987 9985 9983 9982 9980 9979 9978 9977 9977 9977 9976 9977 9977 9977 9977 9977 9978 9978 9980 9982 9983 9985 9986 9988 9990 9992 9994 9997 9999 10002 10005 10008 10012 10016 10020 10025 10030 10035 10040 10045 10050 10055 10061 10067 10072
10173 10167 10159 10152 10145 10137 10130 10124 10117 10110 10104 10098 10092 10085 10080 10074 10069 10063 10058 10053 10048 10043 10039 10035 10031 10027 10024 10020 10017 10015 10012 10008 10005 10002 9998 9995 9992 9990 9988 9987 9985 9983 9981 9980 9978 9977 9975 9974 9973 9973 9973 9972 9972 9973 9973 9973 9973 9974 9975 9976 9978 9980 9982 9983 9984 9986 9988 9990 9992 9995 9998 10001 10004 10008 10012 10015 10020 10025 10030 10035 10039 10044 10049 10054 10060 10065
10170 10162 10154 10147 10140 10133 10126 10119 10113 10107 10100 10095 10088 10082 10076 10070 10065 10060 10055 10050 10045 10040 10036 10032 10028 10024 10020 10017 10014 10011 10008 10005 10002 9998 9995 9992 9990 9987 9985 9983 9982 9980 9978 9976 9975 9973 9972 9971 9970 9970 9969 9969 9969 9969 9969 9970 9970 9970 9971 9972 9974 9976 9977 9979 9980 9982 9984 9987 9988 9991 9994 9997 10000 10003 10007 10011 10016 10020 10025 10029 10033 10038 10043 10048 10053 10058
10165 10157 10149 10142 10135 10128 10122 10115 10109 10103 10097 10091 10085 10080 10073 10068 10062 10057 10052 10047 10042 10037 10033 10029 10025 10021 10017 10013 10010 10008 10005 10002 9999 9996 9993 9990 9987 9984 9982 9980 9978 9977 9975 9973 9972 9970 9969 9968 9967 9967 9966 9966 9966 9966 9966 9966 9967 9967 9968 9969 9970 9972 9973 9975 9977 9979 9981 9983 9985 9988 9990 9993 9996 10000 10003 10007 10012 10016 10020 10024 10028 10032 10037 10042 10047 10052
10160 10152 10145 10138 10131 10125 10118 10112 10106 10100 10093 10088 10082 10077 10071 10065 10060 10054 10049 10044 10039 10035 10030 10027 10022 10018 10015 10011 10008 10004 10001 9998 9995 9993 9990 9987 9984 9982 9979 9977 9975 9973 9972 9970 9969 9967 9966 9965 9964 9963 9963 9963 9963 9962 9962 9963 9963 9964 9965 9966 9967 9969 9970 9972 9973 9975 9978 9980 9982 9985 9987 9990 9993 9996 10000 10004 10008 10012 10015 10019 10023 10027 10032 10037 10042 10047
10156 10148 10142 10135 10128 10121 10115 10108 10103 10097 10090 10085 10079 10073 10068 10063 10057 10052 10047 10042 10037 10032 10028 10024 10020 10016 10012 10008 10005 10002 9998 9995 9992 9990 9987 9984 9982 9979 9977 9975 9972 9971 9969 9968 9966 9965 9963 9962 9962 9961 9960 9960 9960 9960 9960 9960 9960 9961 9962 9963 9965 9966 9967 9968 9970 9972 9974 9977 9978 9981 9984 9987 9990 9993 9997 10000 10003 10007 10010 10013 10017 10022 10026 10031 10037 10042
10153 10145 10138 10132 10125 10118 10112 10106 10100 10093 10088 10082 10076 10070 10065 10060 10055 10050 10045 10040 10035 10030 10026 10022 10018 10013 10010 10007 10003 10000 9996 9993 9990 9987 9984 9982 9979 9977 9974 9972 9970 9968 9967 9965 9963 9962 9961 9960 9959 9958 9958 9957 9957 9957 9957 9957 9957 9958 9959 9960 9962 9963 9964 9965 9967 9968 9970 9973 9975 9978 9980 9983 9987 9990 9993 9997 9999 10002 10005 10009 10013 10017 10021 10026 10032 10037
10149 10142 10135 10128 10122 10115 10109 10103 10097 10091 10085 10080 10073 10068 10062 10057 10052 10047 10043 10038 10033 10029 10025 10020 10016 10012 10008 10004 10001 9997 9994 9991 9988 9985 9982 9979 9977 9974 9972 9970 9968 9966 9964 9963 9961 9960 9958 9957 9957 9956 9955 9955 9955 9954 9954 9954 9955 9955 9956 9957 9958 9960 9961 9962 9963 9965 9967 9969 9972 9974 9977 9980 9983 9987 9989 9992 9995 9998 10001 10005 10008 10012 10017 10021 10027 10032
10146 10139 10132 10125 10119 10113 10107 10101 10095 10089 10083 10078 10072 10067 10061 10055 10050 10045 10040 10036 10032 10027 10023 10018 10015 10010 10006 10002 9998 9995 9992 9988 9985 9983 9980 9977 9975 9972 9970 9968 9966 9964 9962 9961 9959 9958 9957 9955 9954 9953 9953 9952 9952 9952 9952 9952 9952 9953 9953 9954 9955 9957 9958 9959 9960 9962 9964 9966 9968 9971 9973 9977 9979 9982 9985 9988 9991 9993 9997 10000 10003 10008 10012 10017 10022 10027